Time,TemperatureF,DewpointF,PressureIn,WindDirection,WindDirectionDegrees,WindSpeedMPH,WindSpeedGustMPH,Humidity,HourlyPrecipIn,Conditions,Clouds,dailyrainin,SoftwareType,DateUTC
2013-10-27 00:00:00,63.0,31.0,30.00,West,276,4.0,4.0,30,0.00,,,0.00,Wunderground v.1.15,2013-10-27 07:00:00,
2013-10-27 00:05:00,63.0,31.0,30.00,West,271,4.0,7.0,30,0.00,,,0.00,Wunderground v.1.15,2013-10-27 07:05:00,
2013-10-27 00:11:00,62.9,31.0,30.00,West,278,5.0,6.0,30,0.00,,,0.00,Wunderground v.1.15,2013-10-27 07:11:00,
2013-10-27 00:16:00,62.8,31.7,30.00,WSW,257,4.0,6.0,31,0.00,,,0.00,Wunderground v.1.15,2013-10-27 07:16:00,
2013-10-27 00:22:00,62.5,31.4,30.00,West,277,4.0,4.0,31,0.00,,,0.00,Wunderground v.1.15,2013-10-27 07:22:00,
2013-10-27 00:28:00,62.2,31.2,30.00,West,262,3.0,4.0,31,0.00,,,0.00,Wunderground v.1.15,2013-10-27 07:28:00,
2013-10-27 00:34:00,61.9,31.7,30.00,West,268,3.0,4.0,32,0.00,,,0.00,Wunderground v.1.15,2013-10-27 07:34:00,
2013-10-27 00:39:00,61.6,31.4,30.00,WNW,290,3.0,4.0,32,0.00,,,0.00,Wunderground v.1.15,2013-10-27 07:39:00,
2013-10-27 00:45:00,61.5,31.3,30.00,West,260,3.0,5.0,32,0.00,,,0.00,Wunderground v.1.15,2013-10-27 07:45:00,
2013-10-27 00:51:00,61.4,31.3,30.00,West,274,3.0,4.0,32,0.00,,,0.00,Wunderground v.1.15,2013-10-27 07:51:00,
2013-10-27 00:57:00,61.1,31.8,30.00,WSW,256,3.0,6.0,33,0.00,,,0.00,Wunderground v.1.15,2013-10-27 07:57:00,
2013-10-27 01:03:00,60.8,31.5,30.00,West,274,2.0,3.0,33,0.00,,,0.00,Wunderground v.1.15,2013-10-27 08:03:00,
2013-10-27 01:09:00,60.6,31.3,30.00,WNW,293,2.0,4.0,33,0.00,,,0.00,Wunderground v.1.15,2013-10-27 08:09:00,
2013-10-27 01:15:00,60.4,31.9,29.99,West,274,2.0,4.0,34,0.00,,,0.00,Wunderground v.1.15,2013-10-27 08:15:00,
2013-10-27 01:20:00,60.4,31.9,29.99,NNW,341,2.0,3.0,34,0.00,,,0.00,Wunderground v.1.15,2013-10-27 08:20:00,
2013-10-27 01:26:00,60.4,31.9,29.99,NNW,333,3.0,3.0,34,0.00,,,0.00,Wunderground v.1.15,2013-10-27 08:26:00,
2013-10-27 01:31:00,60.4,31.9,29.99,NNW,348,3.0,3.0,34,0.00,,,0.00,Wunderground v.1.15,2013-10-27 08:31:00,
2013-10-27 01:37:00,60.5,31.2,29.99,NW,325,3.0,5.0,33,0.00,,,0.00,Wunderground v.1.15,2013-10-27 08:37:00,
2013-10-27 01:43:00,60.3,31.8,29.98,NW,313,2.0,3.0,34,0.00,,,0.00,Wunderground v.1.15,2013-10-27 08:43:00,
2013-10-27 01:49:00,59.9,31.4,29.98,NW,326,2.0,3.0,34,0.00,,,0.00,Wunderground v.1.15,2013-10-27 08:49:00,
2013-10-27 01:55:00,59.3,31.6,29.98,NW,316,2.0,2.0,35,0.00,,,0.00,Wunderground v.1.15,2013-10-27 08:55:00,
2013-10-27 02:01:00,58.6,31.7,29.98,NNW,331,1.0,1.0,36,0.00,,,0.00,Wunderground v.1.15,2013-10-27 09:01:00,
2013-10-27 02:06:00,58.1,31.3,29.98,NW,323,1.0,1.0,36,0.00,,,0.00,Wunderground v.1.15,2013-10-27 09:06:00,
2013-10-27 02:12:00,58.0,31.8,29.98,NNW,330,1.0,2.0,37,0.00,,,0.00,Wunderground v.1.15,2013-10-27 09:12:00,
2013-10-27 02:18:00,58.1,31.9,29.97,NW,323,2.0,2.0,37,0.00,,,0.00,Wunderground v.1.15,2013-10-27 09:18:00,
2013-10-27 02:24:00,58.6,31.7,29.98,WNW,285,2.0,3.0,36,0.00,,,0.00,Wunderground v.1.15,2013-10-27 09:24:00,
2013-10-27 02:29:00,58.7,31.8,29.97,NW,307,2.0,3.0,36,0.00,,,0.00,Wunderground v.1.15,2013-10-27 09:29:00,
2013-10-27 02:34:00,59.0,32.1,29.97,NW,321,2.0,5.0,36,0.00,,,0.00,Wunderground v.1.15,2013-10-27 09:34:00,
2013-10-27 02:39:00,59.2,32.2,29.97,NW,304,2.0,5.0,36,0.00,,,0.00,Wunderground v.1.15,2013-10-27 09:39:00,
2013-10-27 02:45:00,59.4,32.4,29.96,WNW,294,2.0,4.0,36,0.00,,,0.00,Wunderground v.1.15,2013-10-27 09:45:00,
2013-10-27 02:50:00,59.7,32.7,29.96,NW,317,2.0,3.0,36,0.00,,,0.00,Wunderground v.1.15,2013-10-27 09:50:00,
2013-10-27 02:55:00,59.9,32.2,29.96,NW,311,2.0,3.0,35,0.00,,,0.00,Wunderground v.1.15,2013-10-27 09:55:00,
2013-10-27 03:00:00,60.1,32.3,29.96,NW,310,2.0,3.0,35,0.00,,,0.00,Wunderground v.1.15,2013-10-27 10:00:00,
2013-10-27 03:06:00,60.2,32.4,29.96,WNW,300,2.0,3.0,35,0.00,,,0.00,Wunderground v.1.15,2013-10-27 10:06:00,
2013-10-27 03:11:00,60.2,32.4,29.95,WNW,287,2.0,2.0,35,0.00,,,0.00,Wunderground v.1.15,2013-10-27 10:11:00,
2013-10-27 03:17:00,60.3,32.5,29.96,NNW,338,2.0,3.0,35,0.00,,,0.00,Wunderground v.1.15,2013-10-27 10:17:00,
2013-10-27 03:23:00,60.5,32.7,29.96,NW,321,3.0,3.0,35,0.00,,,0.00,Wunderground v.1.15,2013-10-27 10:23:00,
2013-10-27 03:28:00,60.6,32.8,29.96,North,350,3.0,3.0,35,0.00,,,0.00,Wunderground v.1.15,2013-10-27 10:28:00,
2013-10-27 03:33:00,60.7,32.1,29.95,WNW,302,2.0,2.0,34,0.00,,,0.00,Wunderground v.1.15,2013-10-27 10:33:00,
2013-10-27 03:38:00,60.7,32.1,29.95,WNW,302,3.0,4.0,34,0.00,,,0.00,Wunderground v.1.15,2013-10-27 10:38:00,
2013-10-27 03:44:00,60.7,32.1,29.95,West,272,3.0,4.0,34,0.00,,,0.00,Wunderground v.1.15,2013-10-27 10:44:00,
2013-10-27 03:49:00,60.6,32.8,29.95,WNW,288,3.0,4.0,35,0.00,,,0.00,Wunderground v.1.15,2013-10-27 10:49:00,
2013-10-27 03:55:00,60.4,32.6,29.95,WNW,293,2.0,3.0,35,0.00,,,0.00,Wunderground v.1.15,2013-10-27 10:55:00,
2013-10-27 04:00:00,60.2,32.4,29.95,WNW,284,2.0,2.0,35,0.00,,,0.00,Wunderground v.1.15,2013-10-27 11:00:00,
2013-10-27 04:05:00,60.0,32.2,29.95,WNW,301,2.0,2.0,35,0.00,,,0.00,Wunderground v.1.15,2013-10-27 11:05:00,
2013-10-27 04:10:00,59.9,32.2,29.95,NNW,341,2.0,3.0,35,0.00,,,0.00,Wunderground v.1.15,2013-10-27 11:10:00,
2013-10-27 04:16:00,59.6,31.9,29.94,NW,322,2.0,3.0,35,0.00,,,0.00,Wunderground v.1.15,2013-10-27 11:16:00,
2013-10-27 04:21:00,59.2,32.2,29.94,WNW,287,2.0,2.0,36,0.00,,,0.00,Wunderground v.1.15,2013-10-27 11:21:00,
2013-10-27 04:27:00,58.9,32.0,29.94,West,278,1.0,3.0,36,0.00,,,0.00,Wunderground v.1.15,2013-10-27 11:27:00,
2013-10-27 04:32:00,59.0,32.1,29.94,West,262,2.0,2.0,36,0.00,,,0.00,Wunderground v.1.15,2013-10-27 11:32:00,
2013-10-27 04:38:00,59.2,32.2,29.94,WSW,256,2.0,3.0,36,0.00,,,0.00,Wunderground v.1.15,2013-10-27 11:38:00,
2013-10-27 04:43:00,59.2,32.2,29.94,West,273,2.0,3.0,36,0.00,,,0.00,Wunderground v.1.15,2013-10-27 11:43:00,
2013-10-27 04:49:00,59.3,32.3,29.94,WSW,255,2.0,4.0,36,0.00,,,0.00,Wunderground v.1.15,2013-10-27 11:49:00,
2013-10-27 04:55:00,59.0,32.1,29.94,WSW,250,2.0,2.0,36,0.00,,,0.00,Wunderground v.1.15,2013-10-27 11:55:00,
2013-10-27 05:01:00,58.0,31.8,29.94,WSW,250,0.0,1.0,37,0.00,,,0.00,Wunderground v.1.15,2013-10-27 12:01:00,
2013-10-27 05:07:00,57.0,31.6,29.95,WSW,250,0.0,1.0,38,0.00,,,0.00,Wunderground v.1.15,2013-10-27 12:07:00,
2013-10-27 05:13:00,55.8,31.8,29.95,WSW,250,0.0,0.0,40,0.00,,,0.00,Wunderground v.1.15,2013-10-27 12:13:00,
2013-10-27 05:18:00,54.9,31.6,29.94,WSW,250,0.0,0.0,41,0.00,,,0.00,Wunderground v.1.15,2013-10-27 12:18:00,
2013-10-27 05:24:00,54.6,31.3,29.94,WSW,250,0.0,0.0,41,0.00,,,0.00,Wunderground v.1.15,2013-10-27 12:24:00,
2013-10-27 05:30:00,53.9,31.3,29.94,WSW,250,0.0,0.0,42,0.00,,,0.00,Wunderground v.1.15,2013-10-27 12:30:00,
2013-10-27 05:36:00,53.5,31.5,29.94,WSW,250,0.0,1.0,43,0.00,,,0.00,Wunderground v.1.15,2013-10-27 12:36:00,
2013-10-27 05:38:00,53.5,31.5,29.94,WSW,248,0.0,1.0,43,0.00,,,0.00,Wunderground v.1.15,2013-10-27 12:38:00,
2013-10-27 05:44:00,53.5,31.5,29.94,WSW,248,0.0,0.0,43,0.00,,,0.00,Wunderground v.1.15,2013-10-27 12:44:00,
2013-10-27 05:49:00,53.6,31.6,29.94,WSW,237,0.0,1.0,43,0.00,,,0.00,Wunderground v.1.15,2013-10-27 12:49:00,
2013-10-27 05:54:00,54.2,31.6,29.94,WSW,245,0.0,1.0,42,0.00,,,0.00,Wunderground v.1.15,2013-10-27 12:54:00,
2013-10-27 06:00:00,55.7,31.7,29.93,West,270,1.0,1.0,40,0.00,,,0.00,Wunderground v.1.15,2013-10-27 13:00:00,
2013-10-27 06:05:00,56.5,31.8,29.93,West,271,1.0,2.0,39,0.00,,,0.00,Wunderground v.1.15,2013-10-27 13:05:00,
2013-10-27 06:11:00,56.5,31.8,29.94,West,274,1.0,2.0,39,0.00,,,0.00,Wunderground v.1.15,2013-10-27 13:11:00,
2013-10-27 06:16:00,56.9,31.5,29.94,NNW,333,2.0,3.0,38,0.00,,,0.00,Wunderground v.1.15,2013-10-27 13:16:00,
2013-10-27 06:22:00,57.5,31.4,29.94,NNW,338,2.0,3.0,37,0.00,,,0.00,Wunderground v.1.15,2013-10-27 13:22:00,
2013-10-27 06:27:00,57.5,31.4,29.93,NW,320,1.0,3.0,37,0.00,,,0.00,Wunderground v.1.15,2013-10-27 13:27:00,
2013-10-27 06:32:00,57.3,31.2,29.93,NW,321,1.0,3.0,37,0.00,,,0.00,Wunderground v.1.15,2013-10-27 13:32:00,
2013-10-27 06:38:00,57.2,31.1,29.94,WNW,302,2.0,3.0,37,0.00,,,0.00,Wunderground v.1.15,2013-10-27 13:38:00,
2013-10-27 06:43:00,57.5,31.4,29.94,NW,325,2.0,2.0,37,0.00,,,0.00,Wunderground v.1.15,2013-10-27 13:43:00,
2013-10-27 06:49:00,57.9,31.8,29.94,NNE,15,1.0,2.0,37,0.00,,,0.00,Wunderground v.1.15,2013-10-27 13:49:00,
2013-10-27 06:54:00,57.2,31.1,29.94,North,358,0.0,1.0,37,0.00,,,0.00,Wunderground v.1.15,2013-10-27 13:54:00,
2013-10-27 06:59:00,56.2,30.9,29.94,North,358,0.0,1.0,38,0.00,,,0.00,Wunderground v.1.15,2013-10-27 13:59:00,
2013-10-27 07:04:00,56.1,31.5,29.94,North,358,0.0,0.0,39,0.00,,,0.00,Wunderground v.1.15,2013-10-27 14:04:00,
2013-10-27 07:09:00,56.6,31.3,29.94,NW,316,0.0,1.0,38,0.00,,,0.00,Wunderground v.1.15,2013-10-27 14:09:00,
2013-10-27 07:15:00,57.8,31.7,29.94,WNW,287,1.0,1.0,37,0.00,,,0.00,Wunderground v.1.15,2013-10-27 14:15:00,
2013-10-27 07:20:00,58.9,32.0,29.94,NW,316,1.0,2.0,36,0.00,,,0.00,Wunderground v.1.15,2013-10-27 14:20:00,
2013-10-27 07:26:00,59.1,32.1,29.94,NW,304,1.0,2.0,36,0.00,,,0.00,Wunderground v.1.15,2013-10-27 14:26:00,
2013-10-27 07:32:00,60.1,33.0,29.94,West,273,1.0,3.0,36,0.00,,,0.00,Wunderground v.1.15,2013-10-27 14:32:00,
2013-10-27 07:38:00,61.6,33.7,29.94,West,264,2.0,3.0,35,0.00,,,0.00,Wunderground v.1.15,2013-10-27 14:38:00,
2013-10-27 07:43:00,62.6,33.8,29.95,West,280,1.0,2.0,34,0.00,,,0.00,Wunderground v.1.15,2013-10-27 14:43:00,
2013-10-27 07:48:00,62.8,33.2,29.95,WSW,255,1.0,3.0,33,0.00,,,0.00,Wunderground v.1.15,2013-10-27 14:48:00,
2013-10-27 07:53:00,62.8,33.2,29.95,WSW,240,1.0,2.0,33,0.00,,,0.00,Wunderground v.1.15,2013-10-27 14:53:00,
2013-10-27 07:59:00,62.0,34.0,29.95,WSW,238,1.0,2.0,35,0.00,,,0.00,Wunderground v.1.15,2013-10-27 14:59:00,
2013-10-27 08:05:00,60.6,33.5,29.95,SSE,160,1.0,2.0,36,0.00,,,0.00,Wunderground v.1.15,2013-10-27 15:05:00,
2013-10-27 08:10:00,59.5,33.9,29.95,SSE,156,1.0,1.0,38,0.00,,,0.00,Wunderground v.1.15,2013-10-27 15:10:00,
2013-10-27 08:15:00,59.3,33.7,29.95,SSE,155,1.0,1.0,38,0.00,,,0.00,Wunderground v.1.15,2013-10-27 15:15:00,
2013-10-27 08:20:00,59.3,33.7,29.95,SSE,155,0.0,0.0,38,0.00,,,0.00,Wunderground v.1.15,2013-10-27 15:20:00,
2013-10-27 08:25:00,59.6,33.9,29.95,SSE,155,0.0,0.0,38,0.00,,,0.00,Wunderground v.1.15,2013-10-27 15:25:00,
2013-10-27 08:30:00,59.8,34.1,29.95,SSE,155,0.0,0.0,38,0.00,,,0.00,Wunderground v.1.15,2013-10-27 15:30:00,
2013-10-27 08:36:00,60.6,34.2,29.95,SSE,155,0.0,0.0,37,0.00,,,0.00,Wunderground v.1.15,2013-10-27 15:36:00,
2013-10-27 08:42:00,62.2,34.2,29.95,SSE,158,0.0,0.0,35,0.00,,,0.00,Wunderground v.1.15,2013-10-27 15:42:00,
2013-10-27 08:47:00,63.7,34.8,29.95,SSW,195,0.0,2.0,34,0.00,,,0.00,Wunderground v.1.15,2013-10-27 15:47:00,
2013-10-27 08:53:00,64.6,34.8,29.95,SW,215,1.0,1.0,33,0.00,,,0.00,Wunderground v.1.15,2013-10-27 15:53:00,
2013-10-27 08:59:00,66.7,35.1,29.95,WSW,240,1.0,5.0,31,0.00,,,0.00,Wunderground v.1.15,2013-10-27 15:59:00,
2013-10-27 09:05:00,68.0,33.7,29.95,WNW,286,2.0,6.0,28,0.00,,,0.00,Wunderground v.1.15,2013-10-27 16:05:00,
2013-10-27 09:11:00,68.2,33.8,29.95,West,261,4.0,4.0,28,0.00,,,0.00,Wunderground v.1.15,2013-10-27 16:11:00,
2013-10-27 09:16:00,68.9,34.4,29.95,SW,233,3.0,4.0,28,0.00,,,0.00,Wunderground v.1.15,2013-10-27 16:16:00,
2013-10-27 09:22:00,69.2,33.8,29.95,WSW,245,3.0,3.0,27,0.00,,,0.00,Wunderground v.1.15,2013-10-27 16:22:00,
2013-10-27 09:27:00,69.4,33.9,29.94,WSW,254,3.0,6.0,27,0.00,,,0.00,Wunderground v.1.15,2013-10-27 16:27:00,
2013-10-27 09:33:00,69.8,34.3,29.94,West,267,4.0,4.0,27,0.00,,,0.00,Wunderground v.1.15,2013-10-27 16:33:00,
2013-10-27 09:38:00,70.5,34.9,29.94,SW,224,3.0,4.0,27,0.00,,,0.00,Wunderground v.1.15,2013-10-27 16:38:00,
2013-10-27 09:43:00,70.6,34.0,29.94,WSW,249,4.0,6.0,26,0.00,,,0.00,Wunderground v.1.15,2013-10-27 16:43:00,
2013-10-27 09:49:00,70.5,33.9,29.93,WSW,250,5.0,7.0,26,0.00,,,0.00,Wunderground v.1.15,2013-10-27 16:49:00,
2013-10-27 09:54:00,71.2,34.5,29.93,WNW,290,4.0,5.0,26,0.00,,,0.00,Wunderground v.1.15,2013-10-27 16:54:00,
2013-10-27 09:59:00,71.7,34.0,29.93,SW,217,4.0,5.0,25,0.00,,,0.00,Wunderground v.1.15,2013-10-27 16:59:00,
2013-10-27 10:04:00,71.5,33.8,29.93,WSW,248,4.0,7.0,25,0.00,,,0.00,Wunderground v.1.15,2013-10-27 17:04:00,
2013-10-27 10:10:00,71.7,34.0,29.93,West,280,5.0,5.0,25,0.00,,,0.00,Wunderground v.1.15,2013-10-27 17:10:00,
2013-10-27 10:15:00,71.8,34.1,29.92,West,275,5.0,6.0,25,0.00,,,0.00,Wunderground v.1.15,2013-10-27 17:15:00,
2013-10-27 10:21:00,71.4,33.7,29.92,WSW,242,5.0,7.0,25,0.00,,,0.00,Wunderground v.1.15,2013-10-27 17:21:00,
2013-10-27 10:27:00,71.4,33.7,29.92,SW,214,5.0,8.0,25,0.00,,,0.00,Wunderground v.1.15,2013-10-27 17:27:00,
2013-10-27 10:33:00,71.9,34.1,29.92,SW,229,5.0,6.0,25,0.00,,,0.00,Wunderground v.1.15,2013-10-27 17:33:00,
2013-10-27 10:39:00,72.4,34.6,29.91,SSW,212,4.0,6.0,25,0.00,,,0.00,Wunderground v.1.15,2013-10-27 17:39:00,
2013-10-27 10:44:00,73.1,34.1,29.91,SW,227,4.0,6.0,24,0.00,,,0.00,Wunderground v.1.15,2013-10-27 17:44:00,
2013-10-27 10:49:00,73.2,34.2,29.91,SSW,208,4.0,6.0,24,0.00,,,0.00,Wunderground v.1.15,2013-10-27 17:49:00,
2013-10-27 10:54:00,73.5,34.5,29.91,WSW,243,4.0,9.0,24,0.00,,,0.00,Wunderground v.1.15,2013-10-27 17:54:00,
2013-10-27 11:00:00,73.5,34.5,29.91,SW,234,5.0,7.0,24,0.00,,,0.00,Wunderground v.1.15,2013-10-27 18:00:00,
2013-10-27 11:06:00,74.2,34.0,29.90,SSW,196,5.0,7.0,23,0.00,,,0.00,Wunderground v.1.15,2013-10-27 18:06:00,
2013-10-27 11:12:00,75.1,33.6,29.90,SW,226,5.0,9.0,22,0.00,,,0.00,Wunderground v.1.15,2013-10-27 18:12:00,
2013-10-27 11:17:00,75.0,34.7,29.90,West,268,5.0,9.0,23,0.00,,,0.00,Wunderground v.1.15,2013-10-27 18:17:00,
2013-10-27 11:23:00,75.4,33.9,29.90,SW,214,4.0,5.0,22,0.00,,,0.00,Wunderground v.1.15,2013-10-27 18:23:00,
2013-10-27 11:29:00,75.6,34.1,29.89,SSW,206,4.0,7.0,22,0.00,,,0.00,Wunderground v.1.15,2013-10-27 18:29:00,
2013-10-27 11:35:00,76.0,34.4,29.89,WSW,255,4.0,8.0,22,0.00,,,0.00,Wunderground v.1.15,2013-10-27 18:35:00,
2013-10-27 11:40:00,75.9,34.3,29.88,WSW,257,5.0,5.0,22,0.00,,,0.00,Wunderground v.1.15,2013-10-27 18:40:00,
2013-10-27 11:45:00,76.5,33.6,29.88,South,171,4.0,5.0,21,0.00,,,0.00,Wunderground v.1.15,2013-10-27 18:45:00,
2013-10-27 11:50:00,76.6,33.7,29.88,SSW,198,3.0,6.0,21,0.00,,,0.00,Wunderground v.1.15,2013-10-27 18:50:00,
2013-10-27 11:56:00,76.8,33.9,29.87,SSW,212,5.0,6.0,21,0.00,,,0.00,Wunderground v.1.15,2013-10-27 18:56:00,
2013-10-27 12:01:00,77.0,34.1,29.87,WSW,251,4.0,6.0,21,0.00,,,0.00,Wunderground v.1.15,2013-10-27 19:01:00,
2013-10-27 12:07:00,77.5,33.2,29.86,SW,231,4.0,8.0,20,0.00,,,0.00,Wunderground v.1.15,2013-10-27 19:07:00,
2013-10-27 12:13:00,77.6,33.3,29.86,SW,221,4.0,4.0,20,0.00,,,0.00,Wunderground v.1.15,2013-10-27 19:13:00,
2013-10-27 12:18:00,77.7,30.8,29.85,WSW,238,4.0,8.0,18,0.00,,,0.00,Wunderground v.1.15,2013-10-27 19:18:00,
2013-10-27 12:24:00,78.9,31.8,29.85,WSW,239,4.0,5.0,18,0.00,,,0.00,Wunderground v.1.15,2013-10-27 19:24:00,
2013-10-27 12:30:00,78.6,31.5,29.84,SW,224,4.0,8.0,18,0.00,,,0.00,Wunderground v.1.15,2013-10-27 19:30:00,
2013-10-27 12:36:00,78.3,31.3,29.83,WSW,252,5.0,8.0,18,0.00,,,0.00,Wunderground v.1.15,2013-10-27 19:36:00,
2013-10-27 12:42:00,79.2,29.1,29.83,West,271,4.0,6.0,16,0.00,,,0.00,Wunderground v.1.15,2013-10-27 19:42:00,
2013-10-27 12:47:00,79.2,29.1,29.82,South,190,4.0,7.0,16,0.00,,,0.00,Wunderground v.1.15,2013-10-27 19:47:00,
2013-10-27 12:53:00,79.5,29.4,29.82,WSW,248,4.0,5.0,16,0.00,,,0.00,Wunderground v.1.15,2013-10-27 19:53:00,
2013-10-27 12:59:00,79.7,27.9,29.81,West,281,5.0,11.0,15,0.00,,,0.00,Wunderground v.1.15,2013-10-27 19:59:00,
2013-10-27 13:04:00,80.4,28.5,29.81,WSW,238,3.0,4.0,15,0.00,,,0.00,Wunderground v.1.15,2013-10-27 20:04:00,
2013-10-27 13:09:00,80.7,27.0,29.81,SW,219,1.0,4.0,14,0.00,,,0.00,Wunderground v.1.15,2013-10-27 20:09:00,
2013-10-27 13:15:00,80.2,26.7,29.80,North,350,2.0,4.0,14,0.00,,,0.00,Wunderground v.1.15,2013-10-27 20:15:00,
2013-10-27 13:20:00,80.4,26.8,29.80,ESE,104,3.0,5.0,14,0.00,,,0.00,Wunderground v.1.15,2013-10-27 20:20:00,
2013-10-27 13:26:00,80.3,26.7,29.80,North,352,3.0,5.0,14,0.00,,,0.00,Wunderground v.1.15,2013-10-27 20:26:00,
2013-10-27 13:31:00,81.4,27.6,29.79,NNE,27,3.0,8.0,14,0.00,,,0.00,Wunderground v.1.15,2013-10-27 20:31:00,
2013-10-27 13:37:00,81.4,27.6,29.79,NNE,30,4.0,10.0,14,0.00,,,0.00,Wunderground v.1.15,2013-10-27 20:37:00,
2013-10-27 13:43:00,81.0,27.3,29.79,ENE,61,5.0,6.0,14,0.00,,,0.00,Wunderground v.1.15,2013-10-27 20:43:00,
2013-10-27 13:49:00,80.8,27.1,29.79,NNW,329,6.0,8.0,14,0.00,,,0.00,Wunderground v.1.15,2013-10-27 20:49:00,
2013-10-27 13:54:00,81.2,27.4,29.78,NNE,32,5.0,8.0,14,0.00,,,0.00,Wunderground v.1.15,2013-10-27 20:54:00,
2013-10-27 13:59:00,81.5,27.7,29.78,North,353,4.0,8.0,14,0.00,,,0.00,Wunderground v.1.15,2013-10-27 20:59:00,
2013-10-27 14:05:00,81.5,27.7,29.78,NNW,333,3.0,4.0,14,0.00,,,0.00,Wunderground v.1.15,2013-10-27 21:05:00,
2013-10-27 14:10:00,81.8,27.9,29.78,ENE,67,2.0,2.0,14,0.00,,,0.00,Wunderground v.1.15,2013-10-27 21:10:00,
2013-10-27 14:15:00,81.3,27.5,29.77,North,354,2.0,4.0,14,0.00,,,0.00,Wunderground v.1.15,2013-10-27 21:15:00,
2013-10-27 14:21:00,81.0,27.3,29.77,NNW,335,3.0,3.0,14,0.00,,,0.00,Wunderground v.1.15,2013-10-27 21:21:00,
2013-10-27 14:26:00,81.6,26.0,29.78,North,352,3.0,5.0,13,0.00,,,0.00,Wunderground v.1.15,2013-10-27 21:26:00,
2013-10-27 14:32:00,82.1,24.4,29.77,North,11,2.0,4.0,12,0.00,,,0.00,Wunderground v.1.15,2013-10-27 21:32:00,
2013-10-27 14:37:00,82.3,24.6,29.77,NE,41,3.0,6.0,12,0.00,,,0.00,Wunderground v.1.15,2013-10-27 21:37:00,
2013-10-27 14:43:00,81.1,23.7,29.77,NE,34,6.0,8.0,12,0.00,,,0.00,Wunderground v.1.15,2013-10-27 21:43:00,
2013-10-27 14:49:00,81.3,23.8,29.77,NNW,341,6.0,8.0,12,0.00,,,0.00,Wunderground v.1.15,2013-10-27 21:49:00,
2013-10-27 14:54:00,81.4,23.9,29.77,ENE,62,5.0,9.0,12,0.00,,,0.00,Wunderground v.1.15,2013-10-27 21:54:00,
2013-10-27 14:59:00,81.1,23.7,29.77,NNW,340,5.0,9.0,12,0.00,,,0.00,Wunderground v.1.15,2013-10-27 21:59:00,
2013-10-27 15:05:00,80.9,23.5,29.77,NNW,333,5.0,8.0,12,0.00,,,0.00,Wunderground v.1.15,2013-10-27 22:05:00,
2013-10-27 15:11:00,80.7,23.3,29.77,NW,323,6.0,6.0,12,0.00,,,0.00,Wunderground v.1.15,2013-10-27 22:11:00,
2013-10-27 15:17:00,81.0,23.6,29.76,North,3,4.0,6.0,12,0.00,,,0.00,Wunderground v.1.15,2013-10-27 22:17:00,
2013-10-27 15:23:00,80.9,23.5,29.76,ESE,119,4.0,7.0,12,0.00,,,0.00,Wunderground v.1.15,2013-10-27 22:23:00,
2013-10-27 15:29:00,80.7,23.3,29.76,North,6,4.0,8.0,12,0.00,,,0.00,Wunderground v.1.15,2013-10-27 22:29:00,
2013-10-27 15:35:00,80.8,23.4,29.76,North,349,5.0,7.0,12,0.00,,,0.00,Wunderground v.1.15,2013-10-27 22:35:00,
2013-10-27 15:40:00,80.8,21.3,29.76,NNW,336,5.0,7.0,11,0.00,,,0.00,Wunderground v.1.15,2013-10-27 22:40:00,
2013-10-27 15:46:00,80.5,21.1,29.76,NNE,23,5.0,7.0,11,0.00,,,0.00,Wunderground v.1.15,2013-10-27 22:46:00,
2013-10-27 15:51:00,80.8,21.3,29.76,WNW,284,5.0,8.0,11,0.00,,,0.00,Wunderground v.1.15,2013-10-27 22:51:00,
2013-10-27 15:56:00,80.3,21.0,29.76,North,11,5.0,10.0,11,0.00,,,0.00,Wunderground v.1.15,2013-10-27 22:56:00,
2013-10-27 16:02:00,79.8,20.6,29.76,North,358,7.0,7.0,11,0.00,,,0.00,Wunderground v.1.15,2013-10-27 23:02:00,
2013-10-27 16:07:00,79.4,20.3,29.76,North,353,7.0,10.0,11,0.00,,,0.00,Wunderground v.1.15,2013-10-27 23:07:00,
2013-10-27 16:13:00,79.6,20.4,29.75,North,3,7.0,7.0,11,0.00,,,0.00,Wunderground v.1.15,2013-10-27 23:13:00,
2013-10-27 16:18:00,79.6,20.4,29.75,NNW,327,5.0,7.0,11,0.00,,,0.00,Wunderground v.1.15,2013-10-27 23:18:00,
2013-10-27 16:23:00,79.0,22.0,29.75,NW,316,5.0,7.0,12,0.00,,,0.00,Wunderground v.1.15,2013-10-27 23:23:00,
2013-10-27 16:28:00,78.8,21.9,29.76,North,352,6.0,9.0,12,0.00,,,0.00,Wunderground v.1.15,2013-10-27 23:28:00,
2013-10-27 16:34:00,78.6,19.7,29.75,NNW,335,6.0,6.0,11,0.00,,,0.00,Wunderground v.1.15,2013-10-27 23:34:00,
2013-10-27 16:40:00,78.3,21.5,29.75,NNE,16,6.0,6.0,12,0.00,,,0.00,Wunderground v.1.15,2013-10-27 23:40:00,
2013-10-27 16:45:00,78.0,21.2,29.75,North,6,5.0,8.0,12,0.00,,,0.00,Wunderground v.1.15,2013-10-27 23:45:00,
2013-10-27 16:51:00,77.7,21.0,29.75,North,353,6.0,10.0,12,0.00,,,0.00,Wunderground v.1.15,2013-10-27 23:51:00,
2013-10-27 16:56:00,77.4,22.7,29.75,North,4,6.0,10.0,13,0.00,,,0.00,Wunderground v.1.15,2013-10-27 23:56:00,
2013-10-27 17:02:00,77.1,22.4,29.75,NW,325,5.0,6.0,13,0.00,,,0.00,Wunderground v.1.15,2013-10-28 00:02:00,
2013-10-27 17:08:00,76.4,21.9,29.75,NNW,331,5.0,8.0,13,0.00,,,0.00,Wunderground v.1.15,2013-10-28 00:08:00,
2013-10-27 17:13:00,75.6,21.2,29.75,NE,49,4.0,5.0,13,0.00,,,0.00,Wunderground v.1.15,2013-10-28 00:13:00,
2013-10-27 17:18:00,74.7,22.3,29.75,NNE,13,3.0,6.0,14,0.00,,,0.00,Wunderground v.1.15,2013-10-28 00:18:00,
2013-10-27 17:24:00,73.9,23.3,29.75,North,353,3.0,6.0,15,0.00,,,0.00,Wunderground v.1.15,2013-10-28 00:24:00,
2013-10-27 17:29:00,73.4,22.9,29.75,NE,41,3.0,8.0,15,0.00,,,0.00,Wunderground v.1.15,2013-10-28 00:29:00,
2013-10-27 17:35:00,72.7,23.9,29.75,NNE,15,3.0,4.0,16,0.00,,,0.00,Wunderground v.1.15,2013-10-28 00:35:00,
2013-10-27 17:40:00,72.3,23.6,29.75,North,356,3.0,4.0,16,0.00,,,0.00,Wunderground v.1.15,2013-10-28 00:40:00,
2013-10-27 17:45:00,71.7,24.5,29.75,NNW,327,3.0,5.0,17,0.00,,,0.00,Wunderground v.1.15,2013-10-28 00:45:00,
2013-10-27 17:51:00,71.1,24.0,29.75,NNE,15,4.0,4.0,17,0.00,,,0.00,Wunderground v.1.15,2013-10-28 00:51:00,
2013-10-27 17:56:00,70.8,23.8,29.75,NNE,20,5.0,9.0,17,0.00,,,0.00,Wunderground v.1.15,2013-10-28 00:56:00,
2013-10-27 18:02:00,70.9,23.9,29.75,North,4,5.0,6.0,17,0.00,,,0.00,Wunderground v.1.15,2013-10-28 01:02:00,
2013-10-27 18:08:00,71.1,24.0,29.75,North,355,6.0,11.0,17,0.00,,,0.00,Wunderground v.1.15,2013-10-28 01:08:00,
2013-10-27 18:14:00,70.9,23.9,29.75,NNE,12,5.0,9.0,17,0.00,,,0.00,Wunderground v.1.15,2013-10-28 01:14:00,
2013-10-27 18:19:00,70.6,23.6,29.76,North,352,5.0,9.0,17,0.00,,,0.00,Wunderground v.1.15,2013-10-28 01:19:00,
2013-10-27 18:25:00,70.2,23.3,29.76,North,3,5.0,8.0,17,0.00,,,0.00,Wunderground v.1.15,2013-10-28 01:25:00,
2013-10-27 18:30:00,70.0,23.1,29.76,North,11,5.0,9.0,17,0.00,,,0.00,Wunderground v.1.15,2013-10-28 01:30:00,
2013-10-27 18:36:00,70.1,23.2,29.76,North,351,6.0,9.0,17,0.00,,,0.00,Wunderground v.1.15,2013-10-28 01:36:00,
2013-10-27 18:41:00,70.0,23.1,29.76,NNW,347,6.0,6.0,17,0.00,,,0.00,Wunderground v.1.15,2013-10-28 01:41:00,
2013-10-27 18:46:00,70.2,23.3,29.76,NNW,347,5.0,8.0,17,0.00,,,0.00,Wunderground v.1.15,2013-10-28 01:46:00,
2013-10-27 18:51:00,70.3,23.4,29.77,NNW,342,6.0,11.0,17,0.00,,,0.00,Wunderground v.1.15,2013-10-28 01:51:00,
2013-10-27 18:56:00,70.1,23.2,29.77,North,360,6.0,11.0,17,0.00,,,0.00,Wunderground v.1.15,2013-10-28 01:56:00,
2013-10-27 19:02:00,69.4,24.0,29.77,North,357,6.0,8.0,18,0.00,,,0.00,Wunderground v.1.15,2013-10-28 02:02:00,
2013-10-27 19:08:00,69.4,24.0,29.77,NNW,341,6.0,8.0,18,0.00,,,0.00,Wunderground v.1.15,2013-10-28 02:08:00,
2013-10-27 19:13:00,69.3,23.9,29.77,North,349,6.0,6.0,18,0.00,,,0.00,Wunderground v.1.15,2013-10-28 02:13:00,
2013-10-27 19:19:00,69.3,23.9,29.77,NNW,345,5.0,6.0,18,0.00,,,0.00,Wunderground v.1.15,2013-10-28 02:19:00,
2013-10-27 19:25:00,68.7,23.4,29.77,NNW,338,5.0,7.0,18,0.00,,,0.00,Wunderground v.1.15,2013-10-28 02:25:00,
2013-10-27 19:31:00,68.5,23.3,29.78,NNE,17,4.0,4.0,18,0.00,,,0.00,Wunderground v.1.15,2013-10-28 02:31:00,
2013-10-27 19:36:00,68.1,24.2,29.78,NNE,14,3.0,4.0,19,0.00,,,0.00,Wunderground v.1.15,2013-10-28 02:36:00,
2013-10-27 19:42:00,67.8,24.0,29.78,NE,50,2.0,3.0,19,0.00,,,0.00,Wunderground v.1.15,2013-10-28 02:42:00,
2013-10-27 19:47:00,67.7,23.9,29.78,NNW,340,2.0,5.0,19,0.00,,,0.00,Wunderground v.1.15,2013-10-28 02:47:00,
2013-10-27 19:53:00,67.5,23.7,29.78,North,351,3.0,3.0,19,0.00,,,0.00,Wunderground v.1.15,2013-10-28 02:53:00,
2013-10-27 19:58:00,68.7,24.7,29.78,NNW,328,3.0,5.0,19,0.00,,,0.00,Wunderground v.1.15,2013-10-28 02:58:00,
2013-10-27 20:03:00,69.0,25.0,29.78,NNW,347,3.0,5.0,19,0.00,,,0.00,Wunderground v.1.15,2013-10-28 03:03:00,
2013-10-27 20:09:00,69.2,25.1,29.78,NW,315,3.0,5.0,19,0.00,,,0.00,Wunderground v.1.15,2013-10-28 03:09:00,
2013-10-27 20:15:00,68.9,24.9,29.78,North,349,3.0,6.0,19,0.00,,,0.00,Wunderground v.1.15,2013-10-28 03:15:00,
2013-10-27 20:20:00,67.8,24.0,29.78,NNW,328,3.0,3.0,19,0.00,,,0.00,Wunderground v.1.15,2013-10-28 03:20:00,
2013-10-27 20:25:00,67.8,24.0,29.78,WNW,293,3.0,6.0,19,0.00,,,0.00,Wunderground v.1.15,2013-10-28 03:25:00,
2013-10-27 20:30:00,67.6,25.1,29.78,NNW,329,3.0,5.0,20,0.00,,,0.00,Wunderground v.1.15,2013-10-28 03:30:00,
2013-10-27 20:36:00,67.6,23.8,29.78,North,353,4.0,5.0,19,0.00,,,0.00,Wunderground v.1.15,2013-10-28 03:36:00,
2013-10-27 20:42:00,67.0,24.6,29.78,NW,321,4.0,4.0,20,0.00,,,0.00,Wunderground v.1.15,2013-10-28 03:42:00,
2013-10-27 20:47:00,66.3,25.2,29.78,NW,310,4.0,5.0,21,0.00,,,0.00,Wunderground v.1.15,2013-10-28 03:47:00,
2013-10-27 20:53:00,65.9,24.8,29.78,NE,37,4.0,6.0,21,0.00,,,0.00,Wunderground v.1.15,2013-10-28 03:53:00,
2013-10-27 20:59:00,65.7,24.7,29.78,North,10,4.0,6.0,21,0.00,,,0.00,Wunderground v.1.15,2013-10-28 03:59:00,
2013-10-27 21:01:00,65.7,24.7,29.78,North,358,4.0,5.0,21,0.00,,,0.00,Wunderground v.1.15,2013-10-28 04:01:00,
2013-10-27 21:02:00,65.9,24.8,29.78,NNW,345,4.0,5.0,21,0.00,,,0.00,Wunderground v.1.15,2013-10-28 04:02:00,
2013-10-27 21:03:00,66.2,25.1,29.78,NW,314,4.0,5.0,21,0.00,,,0.00,Wunderground v.1.15,2013-10-28 04:03:00,
2013-10-27 21:09:00,66.6,24.2,29.78,WNW,293,4.0,5.0,20,0.00,,,0.00,Wunderground v.1.15,2013-10-28 04:09:00,
2013-10-27 21:12:00,66.8,24.4,29.78,NNE,28,4.0,4.0,20,0.00,,,0.00,Wunderground v.1.15,2013-10-28 04:12:00,
2013-10-27 21:13:00,67.0,24.6,29.78,NNW,336,4.0,4.0,20,0.00,,,0.00,Wunderground v.1.15,2013-10-28 04:13:00,
2013-10-27 21:17:00,67.4,24.9,29.78,NW,323,4.0,5.0,20,0.00,,,0.00,Wunderground v.1.15,2013-10-28 04:17:00,
2013-10-27 21:23:00,66.7,25.5,29.78,NNW,345,4.0,4.0,21,0.00,,,0.00,Wunderground v.1.15,2013-10-28 04:23:00,
2013-10-27 21:28:00,66.5,25.3,29.78,NNW,338,4.0,5.0,21,0.00,,,0.00,Wunderground v.1.15,2013-10-28 04:28:00,
2013-10-27 21:34:00,67.1,25.8,29.78,North,11,5.0,5.0,21,0.00,,,0.00,Wunderground v.1.15,2013-10-28 04:34:00,
2013-10-27 21:39:00,66.8,25.6,29.78,WNW,293,5.0,7.0,21,0.00,,,0.00,Wunderground v.1.15,2013-10-28 04:39:00,
2013-10-27 21:44:00,67.3,24.8,29.78,NNW,338,6.0,8.0,20,0.00,,,0.00,Wunderground v.1.15,2013-10-28 04:44:00,
2013-10-27 21:50:00,67.1,24.6,29.78,NNE,27,6.0,6.0,20,0.00,,,0.00,Wunderground v.1.15,2013-10-28 04:50:00,
2013-10-27 21:55:00,66.8,24.4,29.78,NW,317,5.0,6.0,20,0.00,,,0.00,Wunderground v.1.15,2013-10-28 04:55:00,
2013-10-27 22:01:00,67.1,24.6,29.78,NE,46,5.0,5.0,20,0.00,,,0.00,Wunderground v.1.15,2013-10-28 05:01:00,
2013-10-27 22:06:00,66.8,25.6,29.78,NNE,18,5.0,7.0,21,0.00,,,0.00,Wunderground v.1.15,2013-10-28 05:06:00,
2013-10-27 22:11:00,66.5,25.3,29.78,NNW,334,5.0,12.0,21,0.00,,,0.00,Wunderground v.1.15,2013-10-28 05:11:00,
2013-10-27 22:18:00,66.6,25.4,29.78,North,349,6.0,12.0,21,0.00,,,0.00,Wunderground v.1.15,2013-10-28 05:18:00,
2013-10-27 22:23:00,67.2,25.9,29.78,NNE,26,6.0,7.0,21,0.00,,,0.00,Wunderground v.1.15,2013-10-28 05:23:00,
2013-10-27 22:29:00,66.4,25.2,29.78,NW,304,5.0,7.0,21,0.00,,,0.00,Wunderground v.1.15,2013-10-28 05:29:00,
2013-10-27 22:34:00,65.5,25.6,29.78,North,7,4.0,5.0,22,0.00,,,0.00,Wunderground v.1.15,2013-10-28 05:34:00,
2013-10-27 22:40:00,65.6,25.7,29.77,NNW,343,4.0,4.0,22,0.00,,,0.00,Wunderground v.1.15,2013-10-28 05:40:00,
2013-10-27 22:46:00,65.1,26.3,29.78,North,7,4.0,5.0,23,0.00,,,0.00,Wunderground v.1.15,2013-10-28 05:46:00,
2013-10-27 22:52:00,65.3,26.5,29.78,NW,306,3.0,4.0,23,0.00,,,0.00,Wunderground v.1.15,2013-10-28 05:52:00,
2013-10-27 22:57:00,65.2,26.4,29.78,NW,326,3.0,6.0,23,0.00,,,0.00,Wunderground v.1.15,2013-10-28 05:57:00,
2013-10-27 23:02:00,65.4,26.6,29.78,NW,309,3.0,6.0,23,0.00,,,0.00,Wunderground v.1.15,2013-10-28 06:02:00,
2013-10-27 23:07:00,65.1,26.3,29.78,WNW,296,3.0,8.0,23,0.00,,,0.00,Wunderground v.1.15,2013-10-28 06:07:00,
2013-10-27 23:13:00,65.5,26.7,29.78,NNW,333,4.0,5.0,23,0.00,,,0.00,Wunderground v.1.15,2013-10-28 06:13:00,
2013-10-27 23:18:00,64.7,27.0,29.78,NNW,332,3.0,5.0,24,0.00,,,0.00,Wunderground v.1.15,2013-10-28 06:18:00,
2013-10-27 23:24:00,64.0,26.4,29.78,NNW,342,3.0,7.0,24,0.00,,,0.00,Wunderground v.1.15,2013-10-28 06:24:00,
2013-10-27 23:30:00,64.5,26.9,29.77,NNE,12,4.0,4.0,24,0.00,,,0.00,Wunderground v.1.15,2013-10-28 06:30:00,
2013-10-27 23:35:00,64.9,27.2,29.77,North,354,3.0,5.0,24,0.00,,,0.00,Wunderground v.1.15,2013-10-28 06:35:00,
2013-10-27 23:40:00,64.4,27.8,29.77,NW,324,3.0,4.0,25,0.00,,,0.00,Wunderground v.1.15,2013-10-28 06:40:00,
2013-10-27 23:46:00,63.5,28.0,29.77,WNW,302,3.0,4.0,26,0.00,,,0.00,Wunderground v.1.15,2013-10-28 06:46:00,
2013-10-27 23:52:00,63.9,29.2,29.77,NNW,339,4.0,4.0,27,0.00,,,0.00,Wunderground v.1.15,2013-10-28 06:52:00,
2013-10-27 23:57:00,63.7,29.1,29.77,NNW,338,4.0,4.0,27,0.00,,,0.00,Wunderground v.1.15,2013-10-28 06:57:00,